TimePST,TemperatureF,Dew PointF,Humidity,Sea Level PressureIn,VisibilityMPH,Wind Direction,Wind SpeedMPH,Gust SpeedMPH,PrecipitationIn,Events,Conditions,WindDirDegrees,DateUTC
12:15 AM,33.8,33.8,100,30.37,7.0,Calm,Calm,-,N/A,,Mostly Cloudy,0,2014-01-04 08:15:00
12:35 AM,35.6,35.6,100,30.37,5.0,Calm,Calm,-,N/A,,Overcast,0,2014-01-04 08:35:00
12:55 AM,37.4,37.4,100,30.38,10.0,Calm,Calm,-,N/A,,Overcast,0,2014-01-04 08:55:00
1:15 AM,39.2,37.4,93,30.38,10.0,Calm,Calm,-,N/A,,Overcast,0,2014-01-04 09:15:00
1:35 AM,39.2,37.4,93,30.38,10.0,Calm,Calm,-,N/A,,Overcast,0,2014-01-04 09:35:00
1:55 AM,39.2,35.6,87,30.39,10.0,Calm,Calm,-,N/A,,Overcast,0,2014-01-04 09:55:00
2:15 AM,37.4,35.6,93,30.39,10.0,Calm,Calm,-,N/A,,Mostly Cloudy,0,2014-01-04 10:15:00
2:35 AM,37.4,35.6,93,30.41,10.0,Calm,Calm,-,N/A,,Overcast,0,2014-01-04 10:35:00
2:55 AM,37.4,35.6,93,30.41,10.0,Calm,Calm,-,N/A,,Overcast,0,2014-01-04 10:55:00
3:15 AM,37.4,37.4,100,30.42,10.0,Calm,Calm,-,N/A,,Overcast,0,2014-01-04 11:15:00
3:35 AM,39.2,37.4,93,30.42,10.0,NNW,3.5,-,N/A,,Overcast,340,2014-01-04 11:35:00
3:55 AM,39.2,35.6,87,30.42,10.0,Calm,Calm,-,N/A,,Overcast,0,2014-01-04 11:55:00
4:15 AM,39.2,37.4,93,30.42,10.0,East,3.5,-,N/A,,Overcast,80,2014-01-04 12:15:00
4:35 AM,39.2,35.6,87,30.42,10.0,East,4.6,-,N/A,,Overcast,100,2014-01-04 12:35:00
4:55 AM,39.2,35.6,87,30.41,10.0,Calm,Calm,-,N/A,,Overcast,0,2014-01-04 12:55:00
5:15 AM,39.2,35.6,87,30.42,10.0,Calm,Calm,-,N/A,,Overcast,0,2014-01-04 13:15:00
5:35 AM,39.2,35.6,87,30.43,10.0,Calm,Calm,-,N/A,,Overcast,0,2014-01-04 13:35:00
5:55 AM,37.4,35.6,93,30.43,10.0,Calm,Calm,-,N/A,,Overcast,0,2014-01-04 13:55:00
6:15 AM,37.4,35.6,93,30.43,10.0,Calm,Calm,-,N/A,,Overcast,0,2014-01-04 14:15:00
6:35 AM,37.4,35.6,93,30.44,10.0,Calm,Calm,-,N/A,,Overcast,0,2014-01-04 14:35:00
6:55 AM,37.4,35.6,93,30.43,10.0,Calm,Calm,-,N/A,,Overcast,0,2014-01-04 14:55:00
7:15 AM,37.4,35.6,93,30.44,10.0,Calm,Calm,-,N/A,,Overcast,0,2014-01-04 15:15:00
7:35 AM,37.4,35.6,93,30.44,10.0,Calm,Calm,-,N/A,,Overcast,0,2014-01-04 15:35:00
7:55 AM,39.2,35.6,87,30.44,10.0,Calm,Calm,-,N/A,,Overcast,0,2014-01-04 15:55:00
8:15 AM,39.2,35.6,87,30.44,10.0,Calm,Calm,-,N/A,,Overcast,0,2014-01-04 16:15:00
8:35 AM,39.2,35.6,87,30.45,10.0,Calm,Calm,-,N/A,,Overcast,0,2014-01-04 16:35:00
8:55 AM,37.4,35.6,93,30.45,10.0,Calm,Calm,-,N/A,,Overcast,0,2014-01-04 16:55:00
9:15 AM,39.2,35.6,87,30.46,10.0,Calm,Calm,-,N/A,,Overcast,0,2014-01-04 17:15:00
9:35 AM,39.2,35.6,87,30.46,10.0,Calm,Calm,-,N/A,,Scattered Clouds,0,2014-01-04 17:35:00
9:55 AM,39.2,35.6,87,30.47,10.0,Calm,Calm,-,N/A,,Clear,0,2014-01-04 17:55:00
10:15 AM,39.2,35.6,87,30.47,10.0,Calm,Calm,-,N/A,,Clear,0,2014-01-04 18:15:00
10:35 AM,39.2,35.6,87,30.47,10.0,Calm,Calm,-,N/A,,Scattered Clouds,0,2014-01-04 18:35:00
10:55 AM,39.2,37.4,93,30.48,10.0,ENE,4.6,-,N/A,,Scattered Clouds,70,2014-01-04 18:55:00
11:15 AM,39.2,37.4,93,30.48,9.0,North,-9999.0,-,N/A,,Scattered Clouds,0,2014-01-04 19:15:00
11:35 AM,39.2,37.4,93,30.47,9.0,Calm,Calm,-,N/A,,Mostly Cloudy,0,2014-01-04 19:35:00
11:55 AM,39.2,37.4,93,30.47,9.0,Calm,Calm,-,N/A,,Overcast,0,2014-01-04 19:55:00
12:15 PM,39.2,35.6,87,30.47,10.0,Calm,Calm,-,N/A,,Mostly Cloudy,0,2014-01-04 20:15:00
12:35 PM,39.2,35.6,87,30.46,10.0,Calm,Calm,-,N/A,,Overcast,0,2014-01-04 20:35:00
12:55 PM,39.2,35.6,87,30.46,10.0,Calm,Calm,-,N/A,,Overcast,0,2014-01-04 20:55:00
1:15 PM,39.2,35.6,87,30.46,10.0,Calm,Calm,-,N/A,,Overcast,0,2014-01-04 21:15:00
1:35 PM,39.2,33.8,81,30.45,10.0,Calm,Calm,-,N/A,,Overcast,0,2014-01-04 21:35:00
1:55 PM,39.2,33.8,81,30.45,10.0,Calm,Calm,-,N/A,,Overcast,0,2014-01-04 21:55:00
2:15 PM,39.2,33.8,81,30.45,10.0,Calm,Calm,-,N/A,,Overcast,0,2014-01-04 22:15:00
2:35 PM,39.2,33.8,81,30.46,10.0,Calm,Calm,-,N/A,,Mostly Cloudy,0,2014-01-04 22:35:00
2:50 PM,39.2,33.8,81,30.45,10.0,Calm,Calm,-,N/A,,Scattered Clouds,0,2014-01-04 22:50:00
3:15 PM,39.2,35.6,87,30.45,10.0,Calm,Calm,-,N/A,,Clear,0,2014-01-04 23:15:00
3:35 PM,37.4,33.8,87,30.45,10.0,Calm,Calm,-,N/A,,Clear,0,2014-01-04 23:35:00
3:55 PM,39.2,32.0,75,30.44,10.0,Calm,Calm,-,N/A,,Clear,0,2014-01-04 23:55:00
4:15 PM,37.4,33.8,87,30.45,10.0,Calm,Calm,-,N/A,,Clear,0,2014-01-05 00:15:00
4:35 PM,35.6,33.8,93,30.45,10.0,Calm,Calm,-,N/A,,Clear,0,2014-01-05 00:35:00
4:55 PM,33.8,32.0,93,30.44,10.0,Calm,Calm,-,N/A,,Clear,0,2014-01-05 00:55:00
5:15 PM,32.0,32.0,100,30.44,10.0,Calm,Calm,-,N/A,,Clear,0,2014-01-05 01:15:00
5:35 PM,32.0,32.0,100,30.44,10.0,Calm,Calm,-,N/A,,Clear,0,2014-01-05 01:35:00
5:55 PM,32.0,32.0,100,30.45,10.0,Calm,Calm,-,N/A,,Clear,0,2014-01-05 01:55:00
6:15 PM,32.0,32.0,100,30.45,9.0,Calm,Calm,-,N/A,,Clear,0,2014-01-05 02:15:00
6:35 PM,32.0,30.2,93,30.45,10.0,Calm,Calm,-,N/A,,Clear,0,2014-01-05 02:35:00
6:55 PM,33.8,30.2,87,30.45,10.0,Calm,Calm,-,N/A,,Clear,0,2014-01-05 02:55:00
7:15 PM,33.8,32.0,93,30.46,10.0,Calm,Calm,-,N/A,,Clear,0,2014-01-05 03:15:00
7:30 PM,33.8,30.2,87,30.46,10.0,Calm,Calm,-,N/A,,Clear,0,2014-01-05 03:30:00
7:55 PM,37.4,30.2,75,30.46,10.0,Calm,Calm,-,N/A,,Clear,0,2014-01-05 03:55:00
8:15 PM,32.0,30.2,93,30.47,10.0,Calm,Calm,-,N/A,,Clear,0,2014-01-05 04:15:00
8:35 PM,32.0,30.2,93,30.46,10.0,Calm,Calm,-,N/A,,Clear,0,2014-01-05 04:35:00
8:55 PM,32.0,32.0,100,30.47,10.0,Calm,Calm,-,N/A,,Clear,0,2014-01-05 04:55:00
9:15 PM,37.4,32.0,81,30.47,10.0,NE,3.5,-,N/A,,Clear,40,2014-01-05 05:15:00
9:35 PM,37.4,32.0,81,30.47,10.0,Calm,Calm,-,N/A,,Clear,0,2014-01-05 05:35:00
9:55 PM,37.4,32.0,81,30.48,10.0,Calm,Calm,-,N/A,,Clear,0,2014-01-05 05:55:00
10:15 PM,37.4,32.0,81,30.46,10.0,Calm,Calm,-,N/A,,Clear,0,2014-01-05 06:15:00
10:35 PM,37.4,32.0,81,30.48,10.0,Calm,Calm,-,N/A,,Clear,0,2014-01-05 06:35:00
10:55 PM,37.4,32.0,81,30.48,10.0,Calm,Calm,-,N/A,,Clear,0,2014-01-05 06:55:00
11:15 PM,37.4,32.0,81,30.48,10.0,ENE,4.6,-,N/A,,Clear,70,2014-01-05 07:15:00
11:35 PM,37.4,32.0,81,30.48,10.0,NE,3.5,-,N/A,,Clear,40,2014-01-05 07:35:00
11:55 PM,37.4,30.2,75,30.48,10.0,NE,5.8,-,N/A,,Clear,50,2014-01-05 07:55:00